Darstellungsparameter: Aktuell verwendete Einstellungen:
Skalierung der Graphiken ... ?
xyx+y,   Skalierungsfaktor:      Skalierung: Modus: x, Faktor: 1
Darstellungszeitraum ... ?
Vom - - bis: - -   Zeitraum: 04.03.2019 - 05.03.2019
Min/Max/Avg-Anzeige ... ?
Zeige MMA aktuell
Zeige MMA Monat
Zeige MMA alles
Zeige --A aktuell
Zeige --A Monat
Zeige --A alles
Keine MMA-Anzeige
MMA:
Keine MMA-Graphiken
MMA-Basis: 04.03.2019 - 05.03.2019
Quicknavigation für Darstellung... ?
Tage:      1T, 2T, 3T, 5T -1T -2T -3T -5T +1T +2T +3T +5T
Wochen: 1W, 2W, 3W -1W -2W -3W +1W +2W +3W
Monate: 1M, 3M, 6M -1M -3M -6M +1M +3M +6M
Jahre:    1J, 3J, 5J, 10J -1J -3J -5J -10J +1J +3J +5J +10J
Nutze für die Darstellung ... ?
Originaldaten oder Mittelwerte auf ...
Stundenbasis Tagesbasis Wochenbasis
Monatsbasis Jahresbasis      Datenbasis: Original-Daten
Darstellen als:
Statistik (Auto) Statistik J:M      Darstellung:
Zur Graphik,    zurück zur Übersicht aller Sensoren.
 
Tabellarische Datenbersicht: ?
 
Sensor: Nr:Datum:Temp:Feuchte:Taupunkt:
Aussen-T/F 1 04-03-2019 00:00:00 12.9 C 73 % 8.18 C
2 04-03-2019 00:05:00 12.9 C 73 % 8.18 C
3 04-03-2019 00:10:00 12.9 C 72 % 7.98 C
4 04-03-2019 00:15:00 13 C 72 % 8.08 C
5 04-03-2019 00:20:00 13.1 C 72 % 8.17 C
6 04-03-2019 00:25:00 13.1 C 71 % 7.97 C
7 04-03-2019 00:30:00 13.2 C 71 % 8.06 C
8 04-03-2019 00:35:00 13.2 C 70 % 7.86 C
9 04-03-2019 00:40:00 13.2 C 71 % 8.06 C
10 04-03-2019 00:45:00 13.2 C 70 % 7.86 C
11 04-03-2019 00:50:00 13.3 C 70 % 7.95 C
12 04-03-2019 00:55:00 13.3 C 70 % 7.95 C
13 04-03-2019 01:00:00 13.3 C 69 % 7.74 C
14 04-03-2019 01:05:00 13.3 C 70 % 7.95 C
15 04-03-2019 01:10:00 13.3 C 70 % 7.95 C
16 04-03-2019 01:15:00 13.3 C 70 % 7.95 C
17 04-03-2019 01:20:00 13.3 C 69 % 7.74 C
18 04-03-2019 01:25:00 13.3 C 69 % 7.74 C
19 04-03-2019 01:30:00 13.4 C 68 % 7.62 C
20 04-03-2019 01:35:00 13.6 C 67 % 7.6 C
21 04-03-2019 01:40:00 13.8 C 67 % 7.79 C
22 04-03-2019 01:45:00 13.8 C 67 % 7.79 C
23 04-03-2019 01:50:00 13.9 C 67 % 7.88 C
24 04-03-2019 01:55:00 13.8 C 69 % 8.22 C
25 04-03-2019 02:00:00 13.6 C 70 % 8.24 C
Sensor: Nr:Datum:Temp:Feuchte:Taupunkt:
Aussen-T/F 26 04-03-2019 02:05:00 13.3 C 71 % 8.16 C
27 04-03-2019 02:10:00 13.2 C 72 % 8.27 C
28 04-03-2019 02:15:00 12.9 C 74 % 8.38 C
29 04-03-2019 02:20:00 12.8 C 75 % 8.48 C
30 04-03-2019 02:25:00 12.6 C 76 % 8.49 C
31 04-03-2019 02:30:00 12.5 C 77 % 8.58 C
32 04-03-2019 02:35:00 12.3 C 77 % 8.39 C
33 04-03-2019 02:40:00 12.3 C 78 % 8.58 C
34 04-03-2019 02:45:00 12.2 C 78 % 8.48 C
35 04-03-2019 02:50:00 12.2 C 78 % 8.48 C
36 04-03-2019 02:55:00 12.1 C 79 % 8.57 C
37 04-03-2019 03:00:00 12.1 C 79 % 8.57 C
38 04-03-2019 03:05:00 12 C 79 % 8.48 C
39 04-03-2019 03:10:00 11.9 C 80 % 8.56 C
40 04-03-2019 03:15:00 11.8 C 80 % 8.47 C
41 04-03-2019 03:20:00 11.8 C 80 % 8.47 C
42 04-03-2019 03:25:00 11.7 C 81 % 8.55 C
43 04-03-2019 03:30:00 11.7 C 81 % 8.55 C
44 04-03-2019 03:35:00 11.7 C 81 % 8.55 C
45 04-03-2019 03:40:00 11.7 C 81 % 8.55 C
46 04-03-2019 03:45:00 11.7 C 81 % 8.55 C
47 04-03-2019 03:50:00 11.7 C 81 % 8.55 C
48 04-03-2019 03:55:00 11.7 C 81 % 8.55 C
49 04-03-2019 04:00:00 11.7 C 81 % 8.55 C
50 04-03-2019 04:05:00 11.7 C 81 % 8.55 C
Sensor: Nr:Datum:Temp:Feuchte:Taupunkt:
Aussen-T/F 51 04-03-2019 04:10:00 11.6 C 81 % 8.45 C
52 04-03-2019 04:15:00 11.6 C 81 % 8.45 C
53 04-03-2019 04:20:00 11.6 C 81 % 8.45 C
54 04-03-2019 04:25:00 11.7 C 82 % 8.73 C
55 04-03-2019 04:30:00 11.7 C 82 % 8.73 C
56 04-03-2019 04:35:00 11.7 C 82 % 8.73 C
57 04-03-2019 04:40:00 11.7 C 82 % 8.73 C
58 04-03-2019 04:45:00 11.7 C 82 % 8.73 C
59 04-03-2019 04:50:00 11.7 C 82 % 8.73 C
60 04-03-2019 04:55:00 11.7 C 81 % 8.55 C
61 04-03-2019 05:00:00 11.7 C 81 % 8.55 C
62 04-03-2019 05:05:00 11.7 C 80 % 8.37 C
63 04-03-2019 05:10:00 11.8 C 80 % 8.47 C
64 04-03-2019 05:15:00 11.8 C 80 % 8.47 C
65 04-03-2019 05:20:00 11.8 C 80 % 8.47 C
66 04-03-2019 05:25:00 11.8 C 80 % 8.47 C
67 04-03-2019 05:30:00 11.7 C 80 % 8.37 C
68 04-03-2019 05:35:00 11.6 C 79 % 8.09 C
69 04-03-2019 05:40:00 11.6 C 80 % 8.27 C
70 04-03-2019 05:45:00 11.4 C 80 % 8.08 C
71 04-03-2019 05:50:00 11.4 C 80 % 8.08 C
72 04-03-2019 05:55:00 11.3 C 81 % 8.16 C
73 04-03-2019 06:00:00 11.3 C 81 % 8.16 C
74 04-03-2019 06:05:00 11.4 C 80 % 8.08 C
75 04-03-2019 06:10:00 11.4 C 80 % 8.08 C
Sensor: Nr:Datum:Temp:Feuchte:Taupunkt:
Aussen-T/F 76 04-03-2019 06:15:00 11.3 C 80 % 7.98 C
77 04-03-2019 06:20:00 11.3 C 79 % 7.8 C
78 04-03-2019 06:25:00 11.3 C 78 % 7.61 C
79 04-03-2019 06:30:00 11.5 C 77 % 7.61 C
80 04-03-2019 06:35:00 11.6 C 79 % 8.09 C
81 04-03-2019 06:40:00 11.6 C 79 % 8.09 C
82 04-03-2019 06:45:00 11.5 C 78 % 7.8 C
83 04-03-2019 06:50:00 11.6 C 78 % 7.9 C
84 04-03-2019 06:55:00 11.6 C 78 % 7.9 C
85 04-03-2019 07:00:00 11.6 C 77 % 7.71 C
86 04-03-2019 07:05:00 11.7 C 76 % 7.62 C
87 04-03-2019 07:10:00 11.8 C 76 % 7.71 C
88 04-03-2019 07:15:00 11.9 C 75 % 7.62 C
89 04-03-2019 07:20:00 12 C 74 % 7.52 C
90 04-03-2019 07:25:00 12 C 74 % 7.52 C
91 04-03-2019 07:30:00 12.1 C 73 % 7.41 C
92 04-03-2019 07:35:00 12.1 C 73 % 7.41 C
93 04-03-2019 07:40:00 12.2 C 72 % 7.31 C
94 04-03-2019 07:45:00 12.2 C 72 % 7.31 C
95 04-03-2019 07:50:00 12.2 C 72 % 7.31 C
96 04-03-2019 07:55:00 12.2 C 72 % 7.31 C
97 04-03-2019 08:00:00 12.3 C 72 % 7.4 C
98 04-03-2019 08:05:00 12.3 C 71 % 7.2 C
99 04-03-2019 08:10:00 12.4 C 70 % 7.09 C
100 04-03-2019 08:15:00 12.4 C 69 % 6.88 C
Sensor: Nr:Datum:Temp:Feuchte:Taupunkt:
Aussen-T/F 101 04-03-2019 08:20:00 12.6 C 68 % 6.86 C
102 04-03-2019 08:25:00 12.7 C 68 % 6.95 C
103 04-03-2019 08:30:00 12.7 C 67 % 6.74 C
104 04-03-2019 08:35:00 12 C 75 % 7.71 C
105 04-03-2019 08:40:00 10.7 C 77 % 6.84 C
106 04-03-2019 08:45:00 9.7 C 80 % 6.42 C
107 04-03-2019 08:50:00 9.2 C 80 % 5.94 C
108 04-03-2019 08:55:00 8.9 C 81 % 5.82 C
109 04-03-2019 09:00:00 8.9 C 79 % 5.46 C
110 04-03-2019 09:05:00 9 C 77 % 5.19 C
111 04-03-2019 09:10:00 9.2 C 75 % 5.01 C
112 04-03-2019 09:15:00 9.4 C 74 % 5.01 C
113 04-03-2019 09:20:00 9.6 C 73 % 5.01 C
114 04-03-2019 09:25:00 9.6 C 73 % 5.01 C
115 04-03-2019 09:30:00 9.7 C 73 % 5.1 C
116 04-03-2019 09:35:00 9.8 C 75 % 5.59 C
117 04-03-2019 09:40:00 9.8 C 78 % 6.15 C
118 04-03-2019 09:45:00 9.4 C 79 % 5.95 C
119 04-03-2019 09:50:00 9.2 C 80 % 5.94 C
120 04-03-2019 09:55:00 9.1 C 80 % 5.84 C
121 04-03-2019 10:00:00 9.1 C 80 % 5.84 C
122 04-03-2019 10:05:00 9.2 C 80 % 5.94 C
123 04-03-2019 10:10:00 9.4 C 79 % 5.95 C
124 04-03-2019 10:15:00 9.6 C 78 % 5.96 C
125 04-03-2019 10:20:00 9.7 C 77 % 5.87 C
Sensor: Nr:Datum:Temp:Feuchte:Taupunkt:
Aussen-T/F 126 04-03-2019 10:25:00 9.9 C 77 % 6.06 C
127 04-03-2019 10:30:00 10 C 76 % 5.97 C
128 04-03-2019 10:35:00 10.1 C 76 % 6.07 C
129 04-03-2019 10:40:00 10.2 C 76 % 6.16 C
130 04-03-2019 10:45:00 10.3 C 75 % 6.07 C
131 04-03-2019 10:50:00 10.6 C 74 % 6.17 C
132 04-03-2019 10:55:00 10.8 C 71 % 5.76 C
133 04-03-2019 11:00:00 11.1 C 70 % 5.84 C
134 04-03-2019 11:05:00 11.3 C 68 % 5.62 C
135 04-03-2019 11:10:00 11.6 C 67 % 5.69 C
136 04-03-2019 11:15:00 11.7 C 66 % 5.57 C
137 04-03-2019 11:20:00 11.7 C 65 % 5.35 C
138 04-03-2019 11:25:00 11.6 C 68 % 5.9 C
139 04-03-2019 11:30:00 11.2 C 70 % 5.94 C
140 04-03-2019 11:35:00 10.9 C 71 % 5.86 C
141 04-03-2019 11:40:00 10.8 C 71 % 5.76 C
142 04-03-2019 11:45:00 10.9 C 72 % 6.06 C
143 04-03-2019 11:50:00 11 C 71 % 5.95 C
144 04-03-2019 11:55:00 11 C 71 % 5.95 C
145 04-03-2019 12:00:00 11.2 C 69 % 5.73 C
146 04-03-2019 12:05:00 11.3 C 68 % 5.62 C
147 04-03-2019 12:10:00 11.4 C 68 % 5.71 C
148 04-03-2019 12:15:00 11.6 C 68 % 5.9 C
149 04-03-2019 12:20:00 11.8 C 67 % 5.88 C
150 04-03-2019 12:25:00 12 C 67 % 6.07 C
Sensor: Nr:Datum:Temp:Feuchte:Taupunkt:
Aussen-T/F 151 04-03-2019 12:30:00 11.9 C 68 % 6.19 C
152 04-03-2019 12:35:00 11.4 C 73 % 6.74 C
153 04-03-2019 12:40:00 10.6 C 78 % 6.93 C
154 04-03-2019 12:45:00 9.8 C 82 % 6.88 C
155 04-03-2019 12:50:00 9.5 C 83 % 6.76 C
156 04-03-2019 12:55:00 9.3 C 84 % 6.74 C
157 04-03-2019 13:00:00 8.8 C 86 % 6.59 C
158 04-03-2019 13:05:00 8.7 C 88 % 6.83 C
159 04-03-2019 13:10:00 9.1 C 90 % 7.55 C
160 04-03-2019 13:15:00 9.3 C 87 % 7.25 C
161 04-03-2019 13:20:00 9.4 C 86 % 7.18 C
162 04-03-2019 13:25:00 9.7 C 85 % 7.3 C
163 04-03-2019 13:30:00 9.9 C 83 % 7.15 C
164 04-03-2019 13:35:00 10.3 C 81 % 7.19 C
165 04-03-2019 13:40:00 10.5 C 80 % 7.2 C
166 04-03-2019 13:45:00 10.4 C 81 % 7.28 C
167 04-03-2019 13:50:00 10.4 C 81 % 7.28 C
168 04-03-2019 13:55:00 10.3 C 81 % 7.19 C
169 04-03-2019 14:00:00 10.2 C 82 % 7.27 C
170 04-03-2019 14:05:00 10.2 C 82 % 7.27 C
171 04-03-2019 14:10:00 10.1 C 84 % 7.52 C
172 04-03-2019 14:15:00 9.9 C 83 % 7.15 C
173 04-03-2019 14:20:00 9.9 C 83 % 7.15 C
174 04-03-2019 14:25:00 9.9 C 81 % 6.8 C
175 04-03-2019 14:30:00 9.8 C 81 % 6.7 C
Sensor: Nr:Datum:Temp:Feuchte:Taupunkt:
Aussen-T/F 176 04-03-2019 14:35:00 9.6 C 82 % 6.68 C
177 04-03-2019 14:40:00 9.1 C 84 % 6.54 C
178 04-03-2019 14:45:00 8.6 C 86 % 6.39 C
179 04-03-2019 14:50:00 8.2 C 86 % 6 C
180 04-03-2019 14:55:00 7.8 C 86 % 5.61 C
181 04-03-2019 15:00:00 7.6 C 85 % 5.24 C
182 04-03-2019 15:05:00 7.4 C 85 % 5.05 C
183 04-03-2019 15:10:00 7.2 C 86 % 5.02 C
184 04-03-2019 15:15:00 7.2 C 86 % 5.02 C
185 04-03-2019 15:20:00 7.1 C 86 % 4.92 C
186 04-03-2019 15:25:00 7.1 C 86 % 4.92 C
187 04-03-2019 15:30:00 6.9 C 85 % 4.56 C
188 04-03-2019 15:35:00 6.9 C 84 % 4.39 C
189 04-03-2019 15:40:00 6.9 C 84 % 4.39 C
190 04-03-2019 15:45:00 6.9 C 83 % 4.22 C
191 04-03-2019 15:50:00 6.9 C 82 % 4.05 C
192 04-03-2019 15:55:00 7.1 C 81 % 4.07 C
193 04-03-2019 16:00:00 7.3 C 81 % 4.26 C
194 04-03-2019 16:05:00 7.4 C 81 % 4.36 C
195 04-03-2019 16:10:00 7.4 C 81 % 4.36 C
196 04-03-2019 16:15:00 7.6 C 81 % 4.55 C
197 04-03-2019 16:20:00 7.6 C 80 % 4.38 C
198 04-03-2019 16:25:00 7.6 C 80 % 4.38 C
199 04-03-2019 16:30:00 7.6 C 79 % 4.2 C
200 04-03-2019 16:35:00 7.6 C 79 % 4.2 C
Sensor: Nr:Datum:Temp:Feuchte:Taupunkt:
Aussen-T/F 201 04-03-2019 16:40:00 7.6 C 78 % 4.02 C
202 04-03-2019 16:45:00 7.6 C 79 % 4.2 C
203 04-03-2019 16:50:00 7.6 C 79 % 4.2 C
204 04-03-2019 16:55:00 7.6 C 78 % 4.02 C
205 04-03-2019 17:00:00 7.6 C 78 % 4.02 C
206 04-03-2019 17:05:00 7.6 C 78 % 4.02 C
207 04-03-2019 17:10:00 7.6 C 78 % 4.02 C
208 04-03-2019 17:15:00 7.5 C 79 % 4.1 C
209 04-03-2019 17:20:00 7.4 C 78 % 3.82 C
210 04-03-2019 17:25:00 7.4 C 79 % 4 C
211 04-03-2019 17:30:00 7.3 C 79 % 3.91 C
212 04-03-2019 17:35:00 7.3 C 79 % 3.91 C
213 04-03-2019 17:40:00 7.3 C 79 % 3.91 C
214 04-03-2019 17:45:00 7.3 C 79 % 3.91 C
215 04-03-2019 17:50:00 7.3 C 79 % 3.91 C
216 04-03-2019 17:55:00 7.2 C 79 % 3.81 C
217 04-03-2019 18:00:00 7.2 C 79 % 3.81 C
218 04-03-2019 18:05:00 7.2 C 80 % 3.99 C
219 04-03-2019 18:10:00 7.1 C 80 % 3.89 C
220 04-03-2019 18:15:00 7 C 80 % 3.79 C
221 04-03-2019 18:20:00 6.9 C 81 % 3.87 C
222 04-03-2019 18:25:00 6.9 C 81 % 3.87 C
223 04-03-2019 18:30:00 7 C 80 % 3.79 C
224 04-03-2019 18:35:00 6.9 C 80 % 3.7 C
225 04-03-2019 18:40:00 6.9 C 81 % 3.87 C
Sensor: Nr:Datum:Temp:Feuchte:Taupunkt:
Aussen-T/F 226 04-03-2019 18:45:00 6.8 C 81 % 3.77 C
227 04-03-2019 18:50:00 6.8 C 81 % 3.77 C
228 04-03-2019 18:55:00 6.9 C 81 % 3.87 C
229 04-03-2019 19:00:00 6.9 C 81 % 3.87 C
230 04-03-2019 19:05:00 6.9 C 81 % 3.87 C
231 04-03-2019 19:10:00 6.9 C 81 % 3.87 C
232 04-03-2019 19:15:00 6.9 C 81 % 3.87 C
233 04-03-2019 19:20:00 6.9 C 81 % 3.87 C
234 04-03-2019 19:25:00 6.9 C 81 % 3.87 C
235 04-03-2019 19:30:00 6.9 C 81 % 3.87 C
236 04-03-2019 19:35:00 6.9 C 82 % 4.05 C
237 04-03-2019 19:40:00 6.8 C 82 % 3.95 C
238 04-03-2019 19:45:00 6.8 C 82 % 3.95 C
239 04-03-2019 19:50:00 6.8 C 82 % 3.95 C
240 04-03-2019 19:55:00 6.8 C 82 % 3.95 C
241 04-03-2019 20:00:00 6.9 C 82 % 4.05 C
242 04-03-2019 20:05:00 6.9 C 82 % 4.05 C
243 04-03-2019 20:10:00 6.9 C 82 % 4.05 C
244 04-03-2019 20:15:00 7 C 81 % 3.97 C
245 04-03-2019 20:20:00 7.1 C 81 % 4.07 C
246 04-03-2019 20:25:00 7.1 C 81 % 4.07 C
247 04-03-2019 20:30:00 7.1 C 81 % 4.07 C
248 04-03-2019 20:35:00 7.1 C 81 % 4.07 C
249 04-03-2019 20:40:00 6.9 C 81 % 3.87 C
250 04-03-2019 20:45:00 6.9 C 82 % 4.05 C
Sensor: Nr:Datum:Temp:Feuchte:Taupunkt:
Aussen-T/F 251 04-03-2019 20:50:00 6.8 C 82 % 3.95 C
252 04-03-2019 20:55:00 6.7 C 82 % 3.85 C
253 04-03-2019 21:00:00 6.6 C 83 % 3.92 C
254 04-03-2019 21:05:00 6.6 C 82 % 3.75 C
255 04-03-2019 21:10:00 6.6 C 83 % 3.92 C
256 04-03-2019 21:15:00 6.6 C 83 % 3.92 C
257 04-03-2019 21:20:00 6.6 C 83 % 3.92 C
258 04-03-2019 21:25:00 6.6 C 83 % 3.92 C
259 04-03-2019 21:30:00 6.6 C 83 % 3.92 C
260 04-03-2019 21:35:00 6.6 C 83 % 3.92 C
261 04-03-2019 21:40:00 6.6 C 84 % 4.1 C
262 04-03-2019 21:45:00 6.6 C 84 % 4.1 C
263 04-03-2019 21:50:00 6.7 C 84 % 4.19 C
264 04-03-2019 21:55:00 6.7 C 84 % 4.19 C
265 04-03-2019 22:00:00 6.9 C 85 % 4.56 C
266 04-03-2019 22:05:00 7 C 85 % 4.66 C
267 04-03-2019 22:10:00 7.1 C 84 % 4.58 C
268 04-03-2019 22:15:00 7.1 C 83 % 4.41 C
269 04-03-2019 22:20:00 7.2 C 82 % 4.34 C
270 04-03-2019 22:25:00 7.1 C 82 % 4.24 C
271 04-03-2019 22:30:00 7.1 C 82 % 4.24 C
272 04-03-2019 22:35:00 7.1 C 82 % 4.24 C
273 04-03-2019 22:40:00 7.1 C 82 % 4.24 C
274 04-03-2019 22:45:00 7.2 C 82 % 4.34 C
275 04-03-2019 22:50:00 7.1 C 82 % 4.24 C
Sensor: Nr:Datum:Temp:Feuchte:Taupunkt:
Aussen-T/F 276 04-03-2019 22:55:00 7.1 C 82 % 4.24 C
277 04-03-2019 23:00:00 7.1 C 82 % 4.24 C
278 04-03-2019 23:05:00 7.1 C 82 % 4.24 C
279 04-03-2019 23:10:00 6.9 C 82 % 4.05 C
280 04-03-2019 23:15:00 6.8 C 83 % 4.12 C
281 04-03-2019 23:20:00 6.7 C 83 % 4.02 C
282 04-03-2019 23:25:00 6.6 C 84 % 4.1 C
283 04-03-2019 23:30:00 6.6 C 84 % 4.1 C
284 04-03-2019 23:35:00 6.5 C 85 % 4.17 C
285 04-03-2019 23:40:00 6.5 C 85 % 4.17 C
286 04-03-2019 23:45:00 6.5 C 85 % 4.17 C
287 04-03-2019 23:50:00 6.5 C 85 % 4.17 C
288 04-03-2019 23:55:00 6.6 C 84 % 4.1 C
289 05-03-2019 00:00:00 6.6 C 84 % 4.1 C
290 05-03-2019 00:05:00 6.6 C 84 % 4.1 C
291 05-03-2019 00:10:00 6.7 C 83 % 4.02 C
292 05-03-2019 00:15:00 6.8 C 83 % 4.12 C
293 05-03-2019 00:20:00 6.9 C 82 % 4.05 C
294 05-03-2019 00:25:00 6.9 C 81 % 3.87 C
295 05-03-2019 00:30:00 7 C 81 % 3.97 C
296 05-03-2019 00:35:00 7 C 80 % 3.79 C
297 05-03-2019 00:40:00 7 C 80 % 3.79 C
298 05-03-2019 00:45:00 7 C 80 % 3.79 C
299 05-03-2019 00:50:00 7 C 80 % 3.79 C
300 05-03-2019 00:55:00 7 C 80 % 3.79 C
Sensor: Nr:Datum:Temp:Feuchte:Taupunkt:
Aussen-T/F 301 05-03-2019 01:00:00 6.9 C 80 % 3.7 C
302 05-03-2019 01:05:00 6.9 C 80 % 3.7 C
303 05-03-2019 01:10:00 6.9 C 80 % 3.7 C
304 05-03-2019 01:15:00 6.9 C 81 % 3.87 C
305 05-03-2019 01:20:00 6.9 C 80 % 3.7 C
306 05-03-2019 01:25:00 6.9 C 81 % 3.87 C
307 05-03-2019 01:30:00 6.8 C 81 % 3.77 C
308 05-03-2019 01:35:00 6.8 C 81 % 3.77 C
309 05-03-2019 01:40:00 6.9 C 81 % 3.87 C
310 05-03-2019 01:45:00 6.9 C 81 % 3.87 C
311 05-03-2019 01:50:00 6.9 C 80 % 3.7 C
312 05-03-2019 01:55:00 6.8 C 80 % 3.6 C
313 05-03-2019 02:00:00 6.8 C 80 % 3.6 C
314 05-03-2019 02:05:00 6.8 C 80 % 3.6 C
315 05-03-2019 02:10:00 6.8 C 80 % 3.6 C
316 05-03-2019 02:15:00 6.8 C 80 % 3.6 C
317 05-03-2019 02:20:00 6.7 C 80 % 3.5 C
318 05-03-2019 02:25:00 6.8 C 80 % 3.6 C
319 05-03-2019 02:30:00 6.8 C 80 % 3.6 C
320 05-03-2019 02:35:00 6.8 C 79 % 3.42 C
321 05-03-2019 02:40:00 6.8 C 80 % 3.6 C
322 05-03-2019 02:45:00 6.8 C 80 % 3.6 C
323 05-03-2019 02:50:00 6.8 C 80 % 3.6 C
324 05-03-2019 02:55:00 6.8 C 80 % 3.6 C
325 05-03-2019 03:00:00 6.8 C 80 % 3.6 C
Sensor: Nr:Datum:Temp:Feuchte:Taupunkt:
Aussen-T/F 326 05-03-2019 03:05:00 6.8 C 80 % 3.6 C
327 05-03-2019 03:10:00 6.8 C 80 % 3.6 C
328 05-03-2019 03:15:00 6.8 C 80 % 3.6 C
329 05-03-2019 03:20:00 6.8 C 80 % 3.6 C
330 05-03-2019 03:25:00 6.8 C 80 % 3.6 C
331 05-03-2019 03:30:00 6.8 C 81 % 3.77 C
332 05-03-2019 03:35:00 6.8 C 81 % 3.77 C
333 05-03-2019 03:40:00 6.7 C 81 % 3.68 C
334 05-03-2019 03:45:00 6.6 C 81 % 3.58 C
335 05-03-2019 03:50:00 6.6 C 81 % 3.58 C
336 05-03-2019 03:55:00 6.6 C 81 % 3.58 C
337 05-03-2019 04:00:00 6.6 C 81 % 3.58 C
338 05-03-2019 04:05:00 6.4 C 81 % 3.38 C
339 05-03-2019 04:10:00 6.4 C 81 % 3.38 C
340 05-03-2019 04:15:00 6.4 C 81 % 3.38 C
341 05-03-2019 04:20:00 6.4 C 81 % 3.38 C
342 05-03-2019 04:25:00 6.4 C 81 % 3.38 C
343 05-03-2019 04:30:00 6.4 C 81 % 3.38 C
344 05-03-2019 04:35:00 6.4 C 81 % 3.38 C
345 05-03-2019 04:40:00 6.4 C 81 % 3.38 C
346 05-03-2019 04:45:00 6.4 C 81 % 3.38 C
347 05-03-2019 04:50:00 6.4 C 81 % 3.38 C
348 05-03-2019 04:55:00 6.5 C 80 % 3.31 C
349 05-03-2019 05:00:00 6.5 C 81 % 3.48 C
350 05-03-2019 05:05:00 6.5 C 80 % 3.31 C
Sensor: Nr:Datum:Temp:Feuchte:Taupunkt:
Aussen-T/F 351 05-03-2019 05:10:00 6.4 C 81 % 3.38 C
352 05-03-2019 05:15:00 6.4 C 81 % 3.38 C
353 05-03-2019 05:20:00 6.3 C 81 % 3.29 C
354 05-03-2019 05:25:00 6.3 C 81 % 3.29 C
355 05-03-2019 05:30:00 6.3 C 81 % 3.29 C
356 05-03-2019 05:35:00 6.3 C 81 % 3.29 C
357 05-03-2019 05:40:00 6.3 C 81 % 3.29 C
358 05-03-2019 05:45:00 6.3 C 81 % 3.29 C
359 05-03-2019 05:50:00 6.3 C 81 % 3.29 C
360 05-03-2019 05:55:00 6.3 C 81 % 3.29 C
361 05-03-2019 06:00:00 6.3 C 80 % 3.11 C
362 05-03-2019 06:05:00 6.3 C 80 % 3.11 C
363 05-03-2019 06:10:00 6.3 C 80 % 3.11 C
364 05-03-2019 06:15:00 6.3 C 79 % 2.93 C
365 05-03-2019 06:20:00 6.2 C 80 % 3.01 C
366 05-03-2019 06:25:00 6.2 C 80 % 3.01 C
367 05-03-2019 06:30:00 6.1 C 80 % 2.92 C
368 05-03-2019 06:35:00 6.2 C 80 % 3.01 C
369 05-03-2019 06:40:00 6.2 C 80 % 3.01 C
370 05-03-2019 06:45:00 6.2 C 80 % 3.01 C
371 05-03-2019 06:50:00 6.3 C 79 % 2.93 C
372 05-03-2019 06:55:00 6.3 C 79 % 2.93 C
373 05-03-2019 07:00:00 6.3 C 79 % 2.93 C
374 05-03-2019 07:05:00 6.3 C 79 % 2.93 C
375 05-03-2019 07:10:00 6.3 C 80 % 3.11 C
Sensor: Nr:Datum:Temp:Feuchte:Taupunkt:
Aussen-T/F 376 05-03-2019 07:15:00 6.3 C 80 % 3.11 C
377 05-03-2019 07:20:00 6.4 C 80 % 3.21 C
378 05-03-2019 07:25:00 6.4 C 79 % 3.03 C
379 05-03-2019 07:30:00 6.5 C 79 % 3.13 C
380 05-03-2019 07:35:00 6.6 C 79 % 3.23 C
381 05-03-2019 07:40:00 6.6 C 79 % 3.23 C
382 05-03-2019 07:45:00 6.6 C 79 % 3.23 C
383 05-03-2019 07:50:00 6.7 C 79 % 3.32 C
384 05-03-2019 07:55:00 6.7 C 79 % 3.32 C
385 05-03-2019 08:00:00 6.7 C 80 % 3.5 C
386 05-03-2019 08:05:00 6.6 C 80 % 3.4 C
387 05-03-2019 08:10:00 6.6 C 80 % 3.4 C
388 05-03-2019 08:15:00 6.6 C 80 % 3.4 C
389 05-03-2019 08:20:00 6.6 C 80 % 3.4 C
390 05-03-2019 08:25:00 6.6 C 80 % 3.4 C
391 05-03-2019 08:30:00 6.6 C 80 % 3.4 C
392 05-03-2019 08:35:00 6.7 C 81 % 3.68 C
393 05-03-2019 08:40:00 6.7 C 80 % 3.5 C
394 05-03-2019 08:45:00 6.7 C 80 % 3.5 C
395 05-03-2019 08:50:00 6.7 C 80 % 3.5 C
396 05-03-2019 08:55:00 6.6 C 82 % 3.75 C
397 05-03-2019 09:00:00 6.6 C 83 % 3.92 C
398 05-03-2019 09:05:00 6.5 C 83 % 3.83 C
399 05-03-2019 09:10:00 6.5 C 82 % 3.66 C
400 05-03-2019 09:15:00 6.6 C 82 % 3.75 C
Sensor: Nr:Datum:Temp:Feuchte:Taupunkt:
Aussen-T/F 401 05-03-2019 09:20:00 6.6 C 82 % 3.75 C
402 05-03-2019 09:25:00 6.6 C 83 % 3.92 C
403 05-03-2019 09:30:00 6.6 C 83 % 3.92 C
404 05-03-2019 09:35:00 6.5 C 84 % 4 C
405 05-03-2019 09:40:00 6.4 C 84 % 3.9 C
406 05-03-2019 09:45:00 6.4 C 84 % 3.9 C
407 05-03-2019 09:50:00 6.4 C 85 % 4.07 C
408 05-03-2019 09:55:00 6.4 C 85 % 4.07 C
409 05-03-2019 10:00:00 6.4 C 85 % 4.07 C
410 05-03-2019 10:05:00 6.5 C 85 % 4.17 C
411 05-03-2019 10:10:00 6.5 C 86 % 4.33 C
412 05-03-2019 10:15:00 6.6 C 86 % 4.43 C
413 05-03-2019 10:20:00 6.6 C 85 % 4.26 C
414 05-03-2019 10:25:00 6.6 C 85 % 4.26 C
415 05-03-2019 10:30:00 6.7 C 85 % 4.36 C
416 05-03-2019 10:35:00 6.7 C 85 % 4.36 C
417 05-03-2019 10:40:00 6.7 C 85 % 4.36 C
418 05-03-2019 10:45:00 6.7 C 85 % 4.36 C
419 05-03-2019 10:50:00 6.7 C 85 % 4.36 C
420 05-03-2019 10:55:00 6.8 C 85 % 4.46 C
421 05-03-2019 11:00:00 6.8 C 85 % 4.46 C
422 05-03-2019 11:05:00 6.9 C 85 % 4.56 C
423 05-03-2019 11:10:00 6.9 C 85 % 4.56 C
424 05-03-2019 11:15:00 6.9 C 85 % 4.56 C
425 05-03-2019 11:20:00 6.9 C 84 % 4.39 C
Sensor: Nr:Datum:Temp:Feuchte:Taupunkt:
Aussen-T/F 426 05-03-2019 11:25:00 7 C 85 % 4.66 C
427 05-03-2019 11:30:00 7 C 85 % 4.66 C
428 05-03-2019 11:35:00 7 C 84 % 4.49 C
429 05-03-2019 11:40:00 7.1 C 84 % 4.58 C
430 05-03-2019 11:45:00 7.1 C 84 % 4.58 C
431 05-03-2019 11:50:00 7.1 C 83 % 4.41 C
432 05-03-2019 11:55:00 7.2 C 83 % 4.51 C
433 05-03-2019 12:00:00 7.2 C 83 % 4.51 C
434 05-03-2019 12:05:00 7.2 C 83 % 4.51 C
435 05-03-2019 12:10:00 7.3 C 82 % 4.44 C
436 05-03-2019 12:15:00 7.3 C 82 % 4.44 C
437 05-03-2019 12:20:00 7.3 C 81 % 4.26 C
438 05-03-2019 12:25:00 7.3 C 81 % 4.26 C
439 05-03-2019 12:30:00 7.3 C 81 % 4.26 C
440 05-03-2019 12:35:00 7.3 C 81 % 4.26 C
441 05-03-2019 12:40:00 7.3 C 81 % 4.26 C
442 05-03-2019 12:45:00 7.3 C 81 % 4.26 C
443 05-03-2019 12:50:00 7.4 C 82 % 4.53 C
444 05-03-2019 12:55:00 7.4 C 81 % 4.36 C
445 05-03-2019 13:00:00 7.5 C 81 % 4.46 C
446 05-03-2019 13:05:00 7.6 C 81 % 4.55 C
447 05-03-2019 13:10:00 7.7 C 81 % 4.65 C
448 05-03-2019 13:15:00 7.8 C 80 % 4.57 C
449 05-03-2019 13:20:00 7.9 C 80 % 4.67 C
450 05-03-2019 13:25:00 8 C 80 % 4.77 C
Sensor: Nr:Datum:Temp:Feuchte:Taupunkt:
Aussen-T/F 451 05-03-2019 13:30:00 8.1 C 80 % 4.86 C
452 05-03-2019 13:35:00 8.1 C 79 % 4.68 C
453 05-03-2019 13:40:00 8.2 C 79 % 4.78 C
454 05-03-2019 13:45:00 8.2 C 79 % 4.78 C
455 05-03-2019 13:50:00 8.2 C 79 % 4.78 C
456 05-03-2019 13:55:00 8.3 C 78 % 4.7 C
457 05-03-2019 14:00:00 8.3 C 78 % 4.7 C
458 05-03-2019 14:05:00 8.3 C 78 % 4.7 C
459 05-03-2019 14:10:00 8.5 C 78 % 4.89 C
460 05-03-2019 14:15:00 8.6 C 78 % 4.99 C
461 05-03-2019 14:20:00 8.7 C 78 % 5.08 C
462 05-03-2019 14:25:00 8.7 C 78 % 5.08 C
463 05-03-2019 14:30:00 8.7 C 78 % 5.08 C
464 05-03-2019 14:35:00 8.8 C 77 % 5 C
465 05-03-2019 14:40:00 8.8 C 77 % 5 C
466 05-03-2019 14:45:00 8.8 C 77 % 5 C
467 05-03-2019 14:50:00 8.8 C 76 % 4.81 C
468 05-03-2019 14:55:00 8.8 C 77 % 5 C
469 05-03-2019 15:00:00 8.8 C 76 % 4.81 C
470 05-03-2019 15:05:00 8.8 C 76 % 4.81 C
471 05-03-2019 15:10:00 8.8 C 76 % 4.81 C
472 05-03-2019 15:15:00 8.9 C 76 % 4.91 C
473 05-03-2019 15:20:00 8.8 C 76 % 4.81 C
474 05-03-2019 15:25:00 8.9 C 76 % 4.91 C
475 05-03-2019 15:30:00 9 C 75 % 4.81 C
Sensor: Nr:Datum:Temp:Feuchte:Taupunkt:
Aussen-T/F 476 05-03-2019 15:35:00 9.1 C 74 % 4.72 C
477 05-03-2019 15:40:00 9.1 C 73 % 4.52 C
478 05-03-2019 15:45:00 9.1 C 73 % 4.52 C
479 05-03-2019 15:50:00 9.1 C 74 % 4.72 C
480 05-03-2019 15:55:00 9.1 C 74 % 4.72 C
481 05-03-2019 16:00:00 9.1 C 75 % 4.91 C
482 05-03-2019 16:05:00 9.1 C 76 % 5.1 C
483 05-03-2019 16:10:00 9.2 C 76 % 5.2 C
484 05-03-2019 16:15:00 9.5 C 74 % 5.1 C
485 05-03-2019 16:20:00 9.9 C 72 % 5.1 C
486 05-03-2019 16:25:00 10.1 C 71 % 5.09 C
487 05-03-2019 16:30:00 10.1 C 71 % 5.09 C
488 05-03-2019 16:35:00 10.1 C 71 % 5.09 C
489 05-03-2019 16:40:00 10.1 C 72 % 5.29 C
490 05-03-2019 16:45:00 10.1 C 72 % 5.29 C
491 05-03-2019 16:50:00 10.2 C 71 % 5.18 C
492 05-03-2019 16:55:00 10.3 C 72 % 5.48 C
493 05-03-2019 17:00:00 10.3 C 71 % 5.28 C
494 05-03-2019 17:05:00 10.1 C 72 % 5.29 C
495 05-03-2019 17:10:00 10.1 C 72 % 5.29 C
496 05-03-2019 17:15:00 10.1 C 73 % 5.49 C
497 05-03-2019 17:20:00 10 C 71 % 4.99 C
498 05-03-2019 17:25:00 9.7 C 72 % 4.9 C
499 05-03-2019 17:30:00 9.3 C 74 % 4.91 C
500 05-03-2019 17:35:00 9.1 C 75 % 4.91 C
Sensor: Nr:Datum:Temp:Feuchte:Taupunkt:
Aussen-T/F 501 05-03-2019 17:40:00 8.7 C 76 % 4.71 C
502 05-03-2019 17:45:00 8.4 C 77 % 4.61 C
503 05-03-2019 17:50:00 8.2 C 78 % 4.6 C
504 05-03-2019 17:55:00 8.1 C 79 % 4.68 C
505 05-03-2019 18:00:00 7.8 C 79 % 4.39 C
506 05-03-2019 18:05:00 7.7 C 80 % 4.47 C
507 05-03-2019 18:10:00 7.5 C 80 % 4.28 C
508 05-03-2019 18:15:00 7.3 C 81 % 4.26 C
509 05-03-2019 18:20:00 7.2 C 81 % 4.16 C
510 05-03-2019 18:25:00 7.1 C 81 % 4.07 C
511 05-03-2019 18:30:00 7 C 81 % 3.97 C
512 05-03-2019 18:35:00 6.9 C 81 % 3.87 C
513 05-03-2019 18:40:00 6.8 C 81 % 3.77 C
514 05-03-2019 18:45:00 6.8 C 81 % 3.77 C
515 05-03-2019 18:50:00 6.8 C 81 % 3.77 C
516 05-03-2019 18:55:00 6.7 C 81 % 3.68 C
517 05-03-2019 19:00:00 6.7 C 82 % 3.85 C
518 05-03-2019 19:05:00 6.6 C 82 % 3.75 C
519 05-03-2019 19:10:00 6.7 C 82 % 3.85 C
520 05-03-2019 19:15:00 6.7 C 82 % 3.85 C
521 05-03-2019 19:20:00 6.6 C 82 % 3.75 C
522 05-03-2019 19:25:00 6.6 C 82 % 3.75 C
523 05-03-2019 19:30:00 6.6 C 83 % 3.92 C
524 05-03-2019 19:35:00 6.6 C 83 % 3.92 C
525 05-03-2019 19:40:00 6.4 C 83 % 3.73 C
Sensor: Nr:Datum:Temp:Feuchte:Taupunkt:
Aussen-T/F 526 05-03-2019 19:45:00 6.4 C 83 % 3.73 C
527 05-03-2019 19:50:00 6.4 C 83 % 3.73 C
528 05-03-2019 19:55:00 6.3 C 83 % 3.63 C
529 05-03-2019 20:00:00 6.3 C 83 % 3.63 C
530 05-03-2019 20:05:00 6.2 C 83 % 3.53 C
531 05-03-2019 20:10:00 6 C 84 % 3.51 C
532 05-03-2019 20:15:00 5.8 C 84 % 3.31 C
533 05-03-2019 20:20:00 5.7 C 84 % 3.21 C
534 05-03-2019 20:25:00 5.5 C 85 % 3.18 C
535 05-03-2019 20:30:00 5.3 C 85 % 2.99 C
536 05-03-2019 20:35:00 5.2 C 86 % 3.05 C
537 05-03-2019 20:40:00 5.1 C 87 % 3.12 C
538 05-03-2019 20:45:00 5 C 87 % 3.02 C
539 05-03-2019 20:50:00 4.8 C 87 % 2.82 C
540 05-03-2019 20:55:00 4.7 C 87 % 2.73 C
541 05-03-2019 21:00:00 4.6 C 87 % 2.63 C
542 05-03-2019 21:05:00 4.4 C 88 % 2.59 C
543 05-03-2019 21:10:00 4.3 C 88 % 2.49 C
544 05-03-2019 21:15:00 4.2 C 88 % 2.39 C
545 05-03-2019 21:20:00 4.2 C 89 % 2.55 C
546 05-03-2019 21:25:00 4.2 C 90 % 2.71 C
547 05-03-2019 21:30:00 4.2 C 90 % 2.71 C
548 05-03-2019 21:35:00 4.2 C 90 % 2.71 C
549 05-03-2019 21:40:00 4.2 C 91 % 2.87 C
550 05-03-2019 21:45:00 4.2 C 91 % 2.87 C
Sensor: Nr:Datum:Temp:Feuchte:Taupunkt:
Aussen-T/F 551 05-03-2019 21:50:00 4.3 C 91 % 2.96 C
552 05-03-2019 21:55:00 4.3 C 91 % 2.96 C
553 05-03-2019 22:00:00 4.3 C 92 % 3.12 C
554 05-03-2019 22:05:00 4.4 C 92 % 3.22 C
555 05-03-2019 22:10:00 4.6 C 92 % 3.42 C
556 05-03-2019 22:15:00 4.7 C 92 % 3.51 C
557 05-03-2019 22:20:00 4.7 C 92 % 3.51 C
558 05-03-2019 22:25:00 4.8 C 92 % 3.61 C
559 05-03-2019 22:30:00 4.8 C 92 % 3.61 C
560 05-03-2019 22:35:00 4.8 C 92 % 3.61 C
561 05-03-2019 22:40:00 4.8 C 92 % 3.61 C
562 05-03-2019 22:45:00 4.8 C 92 % 3.61 C
563 05-03-2019 22:50:00 4.9 C 92 % 3.71 C
564 05-03-2019 22:55:00 4.9 C 92 % 3.71 C
565 05-03-2019 23:00:00 4.9 C 92 % 3.71 C
566 05-03-2019 23:05:00 5 C 92 % 3.81 C
567 05-03-2019 23:10:00 5.1 C 92 % 3.91 C
568 05-03-2019 23:15:00 5.2 C 92 % 4.01 C
569 05-03-2019 23:20:00 5.2 C 92 % 4.01 C
570 05-03-2019 23:25:00 5.3 C 92 % 4.11 C
571 05-03-2019 23:30:00 5.4 C 92 % 4.21 C
572 05-03-2019 23:35:00 5.4 C 92 % 4.21 C
573 05-03-2019 23:40:00 5.4 C 92 % 4.21 C
574 05-03-2019 23:45:00 5.4 C 92 % 4.21 C
575 05-03-2019 23:50:00 5.4 C 92 % 4.21 C
Sensor: Nr:Datum:Temp:Feuchte:Taupunkt:
Aussen-T/F 576 05-03-2019 23:55:00 5.5 C 92 % 4.31 C

Legende:
   Min
   Max


Maximal/Minimal-Werte vom 04.03.2019 - 05.03.2019

Sensor Min Max Avg
Temp
(Aussen-T/F)
4.2 °C
05-03-2019  21:15:00
13.9 °C
04-03-2019  01:50:00
8.3 °C
Feuchte
(Aussen-T/F)
65 %
04-03-2019  11:20:00
92 %
05-03-2019  22:00:00
80 %
Taupunkt
(Aussen-T/F)
2.39 C
05-03-2019  21:15:00
8.73 C
04-03-2019  04:25:00
5 C

Die Daten stammen von einer Davis Vantage Pro 2 Wetter-Station und werden unter Linux mit der Software wview2wettercgi und aufbereitet. Alle Angaben erfolgen ohne Gewähr für ihre Vollständigkeit oder Richtigkeit.
Kontakt: Rainer Krienke krienke@uni-koblenz.de . Meine Webseiten an der Uni Koblenz oder privat.
Version: $Revision: 0.78 $